EW7244 Weather Reports


time (UTC)temp
C
wind
direction
speed
KPH
gust
KPH
rain 1hr
cm
rain 24hr
cm
rain mn
cm
humidity
%
barometer
mb
20260510224553 11 296 0.0 0.0 0.00 0.08 0.00 92 1007.7
20260510223050 11 296 0.0 0.0 0.00 0.08 0.00 93 1007.8
20260510221548 11 296 0.0 0.0 0.00 0.08 0.00 93 1007.8
20260510220058 11 296 0.0 0.0 0.00 0.08 0.00 93 1007.9
20260510214554 11 296 0.0 0.0 0.00 0.08 0.08 93 1007.9
20260510213058 11 296 0.0 0.0 0.00 0.08 0.08 93 1008.0
20260510211510 11 296 0.0 0.0 0.00 0.08 0.08 93 1008.1
20260510210059 11 296 0.0 0.0 0.00 0.08 0.08 93 1008.3
20260510204604 11 296 0.0 0.0 0.00 0.08 0.08 93 1008.2
20260510203051 11 271 0.0 0.0 0.00 0.08 0.08 93 1008.4
20260510201551 11 271 0.0 0.0 0.00 0.08 0.08 93 1008.4
20260510200058 11 271 0.0 0.0 0.00 0.08 0.08 93 1008.4
20260510194556 11 271 0.0 0.0 0.00 0.08 0.08 93 1008.4
20260510193038 11 271 0.0 0.0 0.00 0.08 0.08 93 1008.4
20260510191531 11 271 0.0 0.0 0.00 0.08 0.08 93 1008.4
20260510190017 11 271 0.0 0.0 0.00 0.08 0.08 93 1008.4
20260510184558 11 271 0.0 0.0 0.00 0.15 0.08 92 1008.3
20260510183103 12 271 0.0 0.0 0.00 0.15 0.08 92 1008.4
20260510181521 12 271 0.0 0.0 0.05 0.15 0.08 92 1008.5
20260510180045 12 273 0.0 0.0 0.05 0.15 0.08 93 1008.4
20260510174559 12 273 0.0 0.0 0.05 0.25 0.08 92 1008.5
20260510173022 13 273 0.0 0.0 0.05 0.25 0.08 92 1008.6
20260510171545 13 273 0.0 0.0 0.03 0.23 0.05 91 1008.6
20260510170001 13 273 0.0 0.0 0.03 0.23 0.05 91 1008.7
20260510164543 13 315 0.0 0.0 0.03 0.20 0.03 90 1008.7
20260510163029 13 315 0.0 0.0 0.03 0.20 0.03 90 1008.6
20260510161556 13 315 0.0 0.0 0.03 0.20 0.03 90 1008.6
20260510160056 13 315 0.0 0.0 0.03 0.20 0.03 89 1008.7
20260510154546 14 315 0.0 0.0 0.00 0.18 0.00 87 1008.8
20260510153030 14 221 0.0 0.0 0.00 0.18 0.00 86 1008.8
20260510151543 14 221 0.0 0.0 0.00 0.18 0.00 83 1008.9
20260510150045 15 232 0.0 0.0 0.00 0.18 0.00 81 1008.8
20260510144548 15 232 0.0 0.0 0.00 0.18 0.00 82 1008.9
20260510143041 16 232 0.0 0.0 0.00 0.18 0.00 73 1008.9
20260510141538 16 167 0.0 0.0 0.00 0.18 0.00 82 1008.9
20260510140037 16 145 0.0 0.0 0.00 0.18 0.00 78 1009.0
20260510134544 16 145 0.0 0.0 0.00 0.18 0.00 80 1009.1
20260510133034 16 145 0.0 0.0 0.00 0.18 0.00 80 1009.2
20260510131533 16 145 0.0 0.0 0.00 0.18 0.00 80 1009.3
20260510130033 16 145 0.0 0.0 0.00 0.18 0.00 81 1009.4
20260510124524 16 145 0.0 0.0 0.00 0.18 0.00 81 1009.4
20260510123024 16 145 0.0 0.0 0.00 0.18 0.00 81 1009.5
20260510121521 16 145 0.0 0.0 0.00 0.18 0.00 80 1009.7
20260510120100 16 145 0.0 0.0 0.00 0.18 0.00 78 1009.7
20260510114607 16 145 0.0 0.0 0.00 0.18 0.00 77 1009.8
20260510113057 16 145 0.0 0.0 0.00 0.18 0.00 78 1009.9
20260510111555 16 145 0.0 0.0 0.00 0.18 0.00 77 1010.0
20260510110053 16 145 0.0 0.0 0.00 0.18 0.00 78 1010.1
20260510104607 16 145 0.0 0.0 0.00 0.18 0.00 77 1010.2
20260510103053 16 142 0.0 0.0 0.00 0.18 0.00 79 1010.3
20260510101551 16 162 0.0 0.0 0.00 0.18 0.00 81 1010.2
20260510100055 16 144 0.0 0.0 0.00 0.18 0.00 79 1010.1
20260510094549 16 137 0.0 0.0 0.00 0.18 0.00 79 1010.3
20260510093045 15 139 0.0 0.0 0.00 0.18 0.00 78 1010.4
20260510091542 15 139 0.0 0.0 0.00 0.18 0.00 80 1010.5
20260510090042 15 140 0.0 0.0 0.00 0.18 0.00 81 1010.6
20260510084550 15 140 0.0 0.0 0.00 0.18 0.00 79 1010.6
20260510083038 15 133 0.0 0.0 0.00 0.18 0.00 81 1010.7
20260510081532 15 136 0.0 0.0 0.00 0.18 0.00 80 1010.7
20260510080032 14 135 0.0 0.0 0.00 0.18 0.00 82 1010.9
20260510074526 13 138 0.0 0.0 0.00 0.18 0.00 82 1010.9
20260510073029 13 150 0.0 0.0 0.00 0.18 0.00 83 1010.9
20260510071534 13 140 0.0 0.0 0.00 0.18 0.00 82 1011.0
20260510070027 13 134 0.0 0.0 0.00 0.18 0.00 81 1011.1
20260510064524 12 146 0.0 0.0 0.00 0.18 0.00 88 1011.1
20260510063016 12 143 0.0 0.0 0.00 0.18 0.00 89 1011.0
20260510061513 11 145 0.0 0.0 0.00 0.18 0.00 89 1011.3
20260510060012 12 152 0.0 0.0 0.00 0.18 0.00 89 1011.3
20260510054516 11 229 0.0 0.0 0.00 0.18 0.00 89 1011.4
20260510053009 11 227 0.0 0.0 0.00 0.18 0.00 89 1011.5
20260510051515 11 227 0.0 0.0 0.00 0.18 0.00 88 1011.7
20260510050007 11 227 0.0 0.0 0.00 0.18 0.00 89 1011.8
20260510044509 11 227 0.0 0.0 0.00 0.18 0.00 90 1011.7
20260510043006 10 227 0.0 0.0 0.00 0.18 0.00 90 1011.9
20260510041606 10 227 0.0 0.0 0.00 0.18 0.00 90 1011.9
20260510040046 10 226 0.0 0.0 0.00 0.18 0.00 89 1011.8
20260510034545 10 227 0.0 0.0 0.00 0.18 0.00 88 1011.7
20260510033041 10 227 0.0 0.0 0.00 0.18 0.00 88 1011.8
20260510031540 11 228 0.0 0.0 0.00 0.18 0.00 88 1011.9
20260510030046 11 227 0.0 0.0 0.00 0.18 0.00 88 1012.1
20260510024550 11 221 0.0 0.0 0.00 0.18 0.00 88 1012.2
20260510023036 11 250 0.0 0.0 0.00 0.18 0.00 88 1012.2
20260510021534 11 250 0.0 0.0 0.00 0.18 0.00 88 1012.4
20260510020032 11 260 0.0 0.0 0.00 0.18 0.00 87 1012.6
20260510014531 11 260 0.0 0.0 0.00 0.18 0.00 87 1012.6
20260510013030 11 260 0.0 0.0 0.00 0.18 0.00 86 1012.6
20260510011534 11 260 0.0 0.0 0.00 0.18 0.00 87 1012.5
20260510010036 11 260 0.0 0.0 0.00 0.18 0.00 86 1012.6
20260510004525 11 260 0.0 0.0 0.00 0.18 0.00 86 1012.6
20260510003025 11 231 0.0 0.0 0.00 0.18 0.00 86 1012.7
20260510001525 11 231 0.0 0.0 0.00 0.18 0.00 86 1012.7
20260510000021 12 231 0.0 0.0 0.00 0.18 0.00 86 1012.6
20260509234520 12 231 0.0 0.0 0.00 0.18 0.00 87 1012.7
20260509233019 11 231 0.0 0.0 0.00 0.18 0.00 87 1012.8
20260509231527 12 231 0.0 0.0 0.00 0.18 0.00 85 1012.7
20260509230019 12 237 0.0 0.0 0.00 0.18 0.00 86 1012.8